Location: Newark
(11.0000°N, 122.6717°E)
Time: 07:55:49
(UTC+00:00)

Hubble Space Telescope - Visible Passes

Search period start: 09 December 2019 00:00
Search period end: 19 December 2019 00:00
Orbit: 536 x 540 km, 28.5° (Epoch: 08 December)

Date Brightness Start Highest point End Pass type
(mag) Time Alt. Az. Time Alt. Az. Time Alt. Az.
09 Dec 2.5 20:17:18 18° SSW 20:19:31 30° SSE 20:23:10 10° E visible
10 Dec 1.7 20:08:34 41° SSE 20:08:54 42° SSE 20:12:50 10° ENE visible
11 Dec 2.1 19:59:41 37° E 19:59:41 37° E 20:02:22 10° ENE visible
11 Dec 2.0 21:36:05 10° W 21:39:33 26° NNW 21:43:02 10° NE visible
12 Dec 3.1 19:50:36 19° ENE 19:50:36 19° ENE 19:51:50 10° ENE visible
12 Dec 2.3 21:25:59 10° WNW 21:29:03 20° NNW 21:32:10 10° NNE visible
13 Dec 2.5 21:16:43 13° NW 21:18:33 16° NNW 21:21:14 10° NNE visible
14 Dec 2.7 21:07:17 13° NNW 21:08:05 14° NNW 21:10:12 10° NNE visible
15 Dec 3.0 20:57:42 11° NNW 20:57:42 11° NNW 20:58:58 10° N visible
